This is the latest recevied weather packets stored in our database for station/object KC5DAQ-25. If no packets are shown the sender has not sent any weather packets the latest 10 day(s).
| Time | Temp. | Humidity | Pressure | Rain* | Wind** | Luminosity | Snow |
|---|---|---|---|---|---|---|---|
| 1777672804 | 15.56° C | 90% | 1002.2 hPa | 1.27 mm | - | 60 W/m² | - |
| 1777672743 | 15.56° C | 90% | 1002.3 hPa | 1.27 mm | - | 60 W/m² | - |
| 1777672683 | 15.56° C | 90% | 1002.3 hPa | 1.27 mm | - | 60 W/m² | - |
| 1777672626 | 15.56° C | 90% | 1002.2 hPa | 1.27 mm | - | 146 W/m² | - |
| 1777672563 | 15.56° C | 90% | 1002.2 hPa | 1.27 mm | - | 146 W/m² | - |
| 1777672503 | 15.56° C | 90% | 1002.1 hPa | 1.27 mm | - | 146 W/m² | - |
| 1777672444 | 15.56° C | 90% | 1002.2 hPa | 1.27 mm | - | 146 W/m² | - |
| 1777672379 | 15.56° C | 90% | 1002.2 hPa | 1.27 mm | - | 146 W/m² | - |
| 1777672305 | 15.56° C | 90% | 1002.3 hPa | 1.27 mm | - | 146 W/m² | - |
| 1777672247 | 15.56° C | 90% | 1002.4 hPa | 1.27 mm | - | 146 W/m² | - |
| 1777672185 | 15.56° C | 90% | 1002.5 hPa | 1.27 mm | - | 146 W/m² | - |
| 1777672132 | 15.56° C | 90% | 1002.6 hPa | 1.27 mm | - | 146 W/m² | - |
| 1777672067 | 15.56° C | 90% | 1002.6 hPa | 1.27 mm | - | 176 W/m² | - |
| 1777672007 | 15.56° C | 90% | 1002.7 hPa | 1.27 mm | - | 148 W/m² | - |
| 1777671945 | 15.56° C | 90% | 1002.7 hPa | 1.02 mm | - | 148 W/m² | - |
| 1777671885 | 15.56° C | 90% | 1002.6 hPa | 1.02 mm | - | 148 W/m² | - |
| 1777671825 | 15.56° C | 90% | 1002.5 hPa | 1.02 mm | - | 148 W/m² | - |
| 1777671767 | 15.56° C | 90% | 1002.6 hPa | 1.02 mm | - | 148 W/m² | - |
| 1777671705 | 15.56° C | 90% | 1002.6 hPa | 1.27 mm | - | 146 W/m² | - |
| 1777671646 | 15.56° C | 90% | 1002.7 hPa | 1.27 mm | - | 146 W/m² | - |
| 1777671585 | 15.56° C | 90% | 1002.8 hPa | 1.27 mm | - | 146 W/m² | - |
| 1777671525 | 15.56° C | 90% | 1003.1 hPa | 1.27 mm | - | 121 W/m² | - |
| 1777671465 | 16.11° C | 90% | 1003.2 hPa | 1.27 mm | - | 63 W/m² | - |
| 1777671404 | 16.11° C | 90% | 1003.3 hPa | 1.27 mm | - | 63 W/m² | - |
| 1777671345 | 16.11° C | 90% | 1003.4 hPa | 1.27 mm | - | 63 W/m² | - |
* Rain latest hour (hover to see other rain measurements)
** Current wind speed in m/s (hover to see current wind gust speed)